#timestamp,LO_Frequency,Hit 
1504224015.9,286047000.8,N
1504224035.7,286047000.9,N
1504224055.6,286047000.3,N
1504224075.4,286047000.7,N
1504224095.2,286046998.5,N
1504224115.1,286046998.6,N
1504224116.0,286046998.6,N
1504224135.8,286047000.6,N
1504224155.6,286047000.5,N
1504224175.4,286047000.5,N
1504224195.3,286047004.2,N
1504224215.1,286047001.4,N
1504224235.8,286047004.2,N
1504224255.7,286047003.3,N
1504224275.5,286047003.6,N
1504224295.3,286047003.2,N
1504224315.2,286047003.1,N
1504224335.9,286047005.6,P
1504224355.7,286047001.9,N
1504224375.6,286047003.9,N
1504224395.4,286047001.6,N
1504224415.2,286046999.7,N
1504224435.1,286046998.1,N
1504224436.0,286046998.1,N
1504224455.8,286046998.5,N
1504224475.6,286046998.2,N
1504224495.5,286046999.8,N
1504224515.3,286047001.9,N
1504224535.1,286047005.7,N
1504224555.9,286047006.0,N
1504224575.7,286047005.3,N
1504224595.5,286047005.0,N
1504224615.3,286047003.1,N
1504224635.2,286047001.9,N
1504224655.0,286047002.6,N
1504224655.9,286047002.6,N
1504224675.7,286047004.0,N
1504224695.6,286047001.6,N
1504224715.4,286047001.0,N
1504224735.2,286046999.8,N
1504224755.1,286047002.5,N
1504224756.0,286047002.5,N
1504224775.8,286047000.3,N
1504224795.6,286047000.3,N
1504224815.5,286047000.9,N
1504224835.3,286047002.8,N
1504224855.1,286047002.0,N
1504224875.9,286047004.4,N
1504224895.7,286047004.2,N
1504224915.5,286047001.7,N
1504224935.4,286047001.3,N
1504224955.2,286047003.7,N
1504224975.0,286047004.4,N
1504224975.9,286047004.4,N
1504224995.8,286047002.9,N
1504225015.6,286047001.3,N
1504225035.4,286047003.4,N
1504225055.2,286047003.7,N
1504225075.1,286047001.3,N
1504225076.0,286047001.3,N
1504225095.8,286047001.9,N
1504225115.7,286047004.3,P
1504225135.5,286047000.0,N
1504225155.3,286047002.8,N
1504225175.2,286047001.6,N
1504225195.9,286047001.9,N
1504225215.7,286047002.4,N
1504225235.6,286047005.9,P
1504225255.4,286047003.8,N
1504225275.2,286047003.5,N
1504225295.1,286047003.2,N
1504225296.0,286047003.2,N
1504225315.8,286047001.7,N
1504225335.6,286047002.2,N
1504225355.4,286047002.0,N
1504225375.3,286047002.5,N
1504225395.1,286047004.4,P
1504225415.9,286046999.4,N
1504225435.7,286046996.8,N
1504225455.5,286046996.5,N
1504225475.3,286047000.2,N
1504225495.2,286047001.5,N
1504225515.0,286047001.8,N
1504225515.9,286047001.8,N
1504225535.7,286047004.4,N
1504225555.6,286047003.4,N
1504225575.4,286047002.0,N
1504225595.2,286046998.9,N
1504225615.1,286047001.2,N
1504225616.0,286047001.2,N
1504225635.8,286046999.3,N
1504225655.6,286047000.5,N
1504225675.5,286046999.8,N
1504225695.3,286047001.9,N
1504225715.1,286047003.2,N
1504225735.9,286047004.1,N
1504225755.7,286047001.5,N
1504225775.5,286047003.3,N
1504225795.3,286047003.3,N
1504225815.2,286047005.8,N
1504225835.0,286047004.8,N
1504225835.9,286047004.8,N
1504225855.7,286047002.7,N
1504225875.6,286047000.6,N
1504225895.4,286047002.7,N
1504225915.3,286047004.4,N
1504225935.1,286047007.1,P
1504225955.8,286047003.0,N
1504225975.7,286047004.2,N
1504225995.5,286047003.8,N
1504226015.3,286047005.4,P
1504226035.2,286046998.9,N
1504226055.0,286046997.9,N
1504226055.9,286046997.9,N
1504226075.7,286046997.6,N
1504226095.6,286046996.6,N
1504226115.4,286047001.2,N
1504226135.2,286047000.0,N
1504226155.1,286047001.1,N
1504226156.0,286047001.1,N
1504226175.8,286046999.4,N
1504226195.6,286046996.8,N
1504226215.5,286046994.9,N
1504226235.3,286046998.0,N
1504226255.1,286046995.0,N
1504226275.9,286046997.8,N
1504226295.7,286046996.8,N
1504226315.5,286046994.2,N
1504226335.3,286046994.0,N
1504226355.2,286046995.7,N
1504226375.0,286046997.2,N
1504226375.9,286046997.2,N
1504226395.7,286046997.2,N
1504226415.6,286046997.9,N
1504226435.4,286046997.6,N
1504226455.2,286046998.9,N
1504226475.1,286046998.8,N
1504226476.0,286046998.8,N
1504226495.8,286046999.3,N
1504226515.6,286046998.6,N
1504226535.5,286047002.1,N
1504226555.3,286047003.6,N
1504226575.1,286047005.3,N
1504226595.9,286047002.5,N
1504226615.7,286047005.2,N
1504226635.5,286047005.4,N
1504226655.3,286047007.2,N
1504226675.2,286047005.5,N
1504226695.0,286047004.8,N
1504226695.9,286047004.8,N
1504226715.7,286047003.3,N
1504226735.6,286047004.3,N
1504226755.4,286047002.1,N
1504226775.2,286047002.7,N
1504226795.1,286047003.2,N
1504226796.0,286047003.2,N
1504226815.8,286047003.8,N
1504226835.6,286047004.1,N
1504226855.5,286047002.3,N
1504226875.3,286047003.9,N
1504226895.1,286047003.4,N
1504226915.9,286047005.3,N
1504226935.7,286047004.0,N
1504226955.5,286047004.2,N
1504226975.4,286047002.0,N
1504226995.2,286047001.7,N
1504227015.0,286046999.8,N
1504227015.9,286046999.8,N
1504227035.8,286047002.0,N
1504227055.6,286047001.4,N
1504227075.4,286046999.7,N
1504227095.2,286047000.7,N
1504227115.1,286046998.4,N
1504227116.0,286046998.4,N
1504227135.8,286046998.3,N
1504227155.6,286046999.0,N
1504227175.5,286046998.2,N
1504227195.3,286046999.0,N
1504227215.1,286046998.5,N
1504227235.9,286046998.1,N
1504227255.7,286047001.2,N
1504227275.5,286046998.8,N
1504227295.4,286047003.9,N
1504227315.2,286047005.6,N
1504227335.0,286047005.1,N
1504227335.9,286047005.1,N
1504227355.8,286047005.5,N
1504227375.6,286047004.9,N
1504227395.4,286047004.9,N
1504227415.3,286047008.4,P
1504227435.1,286047006.6,N
1504227436.0,286047006.6,N
1504227455.8,286047007.2,N
1504227475.7,286047005.1,N
1504227495.5,286047002.9,N
1504227515.3,286047006.0,N
1504227535.2,286047005.6,N
1504227555.9,286047004.5,N
1504227575.7,286047004.8,N
1504227595.5,286047004.2,N
